Regional Weather Roundup
Issued by NWS

Home | Current Version | Previous Version | Text Only | Print | Product List | Glossary On
Versions: 1 2 3 4 5 6 7 8 9 10 11 12 13 14 15 16 17 18 19 20 21 22 23 24 25 26 27 28 29 30 31 32 33 34 35 36 37 38 39 40 41 42 43 44 45 46 47 48 49 50
000
ASUS43 KOAX 221610
RWRNE

WEATHER ROUNDUP FOR NEBRASKA
NATIONAL WEATHER SERVICE OMAHA NE
1100 AM CDT TUE AUG 22 2017

NOTES: SATELLITE DATA IS BEING USED TO AUGMENT CLOUD COVER ABOVE
       12000 FEET.
       "FAIR" INDICATES FEW OR NO CLOUDS BELOW 12,000 FEET WITH NO
       SIGNIFICANT WEATHER AND/OR OBSTRUCTIONS TO VISIBILITY.


NEZ001>004-019>022-054>056-221700-
NEBRASKA PANHANDLE

CITY           SKY/WX    TMP DP  RH WIND       PRES   REMARKS
SCOTTSBLUFF    SUNNY     70  55  59 SE15      30.29F
ALLIANCE       SUNNY     69  44  40 S12       30.31S
CHADRON        SUNNY     73  41  31 S14       30.26F
GORDON         FAIR      68  46  45 S10       30.30S
KIMBALL        SUNNY     67  53  59 S14G20    30.36S
SIDNEY         SUNNY     69  49  48 S14       30.35R
$$

NEZ057>060-069>072-079>082-221700-
SOUTHWEST NEBRASKA

CITY           SKY/WX    TMP DP  RH WIND       PRES   REMARKS
NORTH PLATTE   SUNNY     69  54  58 CALM      30.29S
IMPERIAL       SUNNY     70  50  49 E7        30.31S
LEXINGTON      SUNNY     70  53  54 E8        30.28R
MCCOOK         SUNNY     70  54  56 E9        30.28R
OGALLALA       SUNNY     69  52  53 S3        30.31S
$$

NEZ005>010-023>029-035>040-094-221700-
NORTH CENTRAL NEBRASKA

CITY           SKY/WX    TMP DP  RH WIND       PRES   REMARKS
VALENTINE      SUNNY     71  45  39 SW6       30.27S
AINSWORTH      SUNNY     67  47  48 CALM      30.28S
BROKEN BOW     SUNNY     71  47  42 NE10      30.27R
O`NEILL        SUNNY     68  51  55 N5        30.26R
ORD            SUNNY     70  46  42 NE6       30.25R
THEDFORD       SUNNY     70  46  42 CALM      30.31R
$$

NEZ041-046>049-061>064-073>077-083>087-221700-
SOUTH CENTRAL NEBRASKA

CITY           SKY/WX    TMP DP  RH WIND       PRES   REMARKS
GRAND ISLAND   SUNNY     70  51  51 NE9       30.25R
AURORA         SUNNY     69  54  59 N7        30.24S
HASTINGS       SUNNY     70  54  56 NE10      30.26R
HEBRON         SUNNY     74  55  51 NE12      30.21R
HOLDREGE       SUNNY     67  54  61 E12       30.26R
KEARNEY        SUNNY     69  52  54 NE14      30.26R
YORK           SUNNY     70  54  56 N9        30.23R
$$

NEZ011>018-030>034-042>045-221700-
NORTHEAST NEBRASKA

CITY           SKY/WX    TMP DP  RH WIND       PRES   REMARKS
NORFOLK        SUNNY     69  53  56 NW7       30.20S
ALBION         SUNNY     70  52  54 N6        30.24S
BLAIR          SUNNY     70  53  54 N13       30.18S
COLUMBUS       SUNNY     69  58  67 N7        30.23
FREMONT        SUNNY     71  53  53 N5        30.20R
TEKAMAH        SUNNY     71  52  50 N12       30.18R
WAYNE          SUNNY     68  54  60 NW7       30.21R
$$

NEZ050>053-065>068-078-088>093-221700-
SOUTHEAST NEBRASKA

CITY           SKY/WX    TMP DP  RH WIND       PRES   REMARKS
LINCOLN        SUNNY     72  56  57 N8        30.21R
OMAHA EPPLEY   MOSUNNY   71  56  58 N12       30.17R
BEATRICE       SUNNY     73  59  61 NE8       30.19S
FALLS CITY     CLOUDY    71  65  81 N12       30.15R
NEBRASKA CITY  SUNNY     72  59  62 N9        30.17R
PLATTSMOUTH    SUNNY     71  50  48 N8G17     30.18R
$$

NEZ044-045-051>053-067-221700-
OMAHA AREA

CITY           SKY/WX    TMP DP  RH WIND       PRES   REMARKS
OMAHA EPPLEY   MOSUNNY   71  56  58 N12       30.17R
BLAIR          SUNNY     70  53  54 N13       30.18S
FREMONT        SUNNY     71  53  53 N5        30.20R
MILLARD        SUNNY     72  52  49 N7G16     30.18R
OFFUTT AFB     SUNNY     71  53  51 N9        30.17R
PLATTSMOUTH    SUNNY     71  50  48 N8G17     30.18R
WAHOO          FAIR      70  54  57 N10       30.20R
$$



USA.gov is the U.S. government's official web portal to all federal, state and local government web resources and services.